Simultaneous Nadir Overpasses (SNOs) Predictions

Prediction of SNOs between AURA and NPP Satellite Orbit:

Table of predicted SNOs for the next 14.0 days since TLE Epoch: 9/9/2016
Index Date (AURA) Time (AURA) Lat,Lon (AURA) SZA (AURA ) Date (NPP) Time (NPP) Lat,Lon (NPP) SZA (NPP ) Distance(km) Time Diff (sec)
1 09/10/2016 19:08:08 -79.30, -31.71 91.91 09/10/2016 19:08:07 -79.30, -31.69 91.92 0.47 1
2 09/10/2016 19:55:15 81.71,-172.72 80.50 09/10/2016 19:56:28 81.05,-173.56 80.18 74.42 73
3 09/13/2016 10:35:15 79.09, -84.81 89.34 09/13/2016 10:34:21 79.09, -84.78 89.38 0.44 54
4 09/13/2016 11:24:35 -79.37, 84.63 91.05 09/13/2016 11:24:58 -79.38, 84.68 91.08 1.14 23
5 09/16/2016 02:51:39 79.23, 31.96 90.11 09/16/2016 02:51:09 79.24, 32.06 90.11 2.23 30
6 09/16/2016 03:40:59 -79.51,-158.55 90.27 09/16/2016 03:41:46 -79.52,-158.41 90.34 2.87 47
7 09/18/2016 19:08:07 79.25, 147.93 91.07 09/18/2016 19:08:02 79.24, 147.87 91.08 1.31 5
8 09/18/2016 19:57:27 -79.53, -42.56 89.32 09/18/2016 19:58:39 -79.52, -42.59 89.37 0.74 72
9 09/21/2016 10:35:16 -78.99, 94.58 87.62 09/21/2016 10:34:18 -78.98, 94.49 87.56 1.97 58




NCC Satellite Simultaneous Nadir Overpasses (SNOs) Prediction Service
